Overview Statistics Trail Chart Weather Telemetry Raw packets
 

This is the latest recevied weather packets stored in our database for station/object KQ4LLM. If no packets are shown the sender has not sent any weather packets the latest 10 day(s).

<< 108 109 110 111 112 113 114 >>
Time Temp. Humidity Pressure Rain* Wind** Luminosity Snow
1787862847 25.56° C 75% - 0 mm - - -
1787862546 25.56° C 78% - 0 mm - - -
1787862241 25.56° C 77% - 0 mm - - -
1787861937 26.11° C 77% - 0 mm - - -
1787861637 26.67° C 73% - 0 mm - - -
1787861334 26.67° C 75% - 0 mm - - -
1787861030 26.67° C 74% - 0 mm - - -
1787860729 27.22° C 74% - 0 mm - - -
1787860424 27.78° C 73% - 0 mm - - -
1787860124 28.33° C 69% - 0 mm - - -
1787859820 28.33° C 72% - 0 mm - - -
1787859520 27.78° C 74% - 0 mm - - -
1787859219 27.78° C 75% - 0 mm - - -
1787858916 28.33° C 73% - 0 mm - - -
1787858611 28.89° C 71% - 0 mm - - -
1787858306 28.89° C 69% - 0 mm - - -
1787857996 28.89° C 69% - 0 mm - - -
1787857692 29.44° C 69% - 0 mm - - -
1787857388 30° C 67% - 0 mm - - -
1787857084 30° C 65% - 0 mm - - -
1787856780 30.56° C 67% - 0 mm - - -
1787856473 30.56° C 62% - 0 mm - - -
1787856169 30° C 65% - 0 mm - - -
1787855864 29.44° C 66% - 0 mm - - -
1787855558 30° C 67% - 0 mm - - -

* Rain latest hour (hover to see other rain measurements)
** Current wind speed in m/s (hover to see current wind gust speed)